User: anonymous   Login
Location: Gerlach
(40.6516°N, 119.3568°W)
Time: 22:20:00
(UTC-07:00)
Language:

AO-85 - Orbit

View from above orbital plane
View from above orbital plane
View from above satellite
View from above satellite

Ground track
Ground track

The orbit data is extracted from the following two-line orbital elements,

1 40967U 15058D   24255.32333753  .00007184  00000-0  64730-3 0  9995
2 40967  64.7767 111.1822 0190799 277.8702  80.0787 14.83384101 17763
Epoch (UTC): 11 September 2024 07:45:36
Eccentricity: 0.0190799
inclination: 64.7767°
perigee height: 485 km
apogee height: 752 km
right ascension of ascending node: 111.1822°
argument of perigee: 277.8702°
revolutions per day: 14.83384101
mean anomaly at epoch: 80.0787°
orbit number at epoch: 1776

The dashed part of the orbit path shows where the satellite is in the earth's shadow,  

DLR